Weather History for Louisville Bowman, KY

Change the Weather History Date:

Sunday, May 6, 2012

  Actual Average Record
Temperature  
Mean Temperature 78 °F 63 °F  
Max Temperature 88 °F 73 °F 94 °F (1949)
Min Temperature 68 °F 53 °F 35 °F (1968)
Degree Days  
Heating Degree Days 0 4  
Month to date heating degree days 0 25  
Since 1 July heating degree days 3181 4216  
Cooling Degree Days 13 2  
Month to date cooling degree days 74 11  
Year to date cooling degree days 182 45  
Growing Degree Days 28 (Base 50)    
Moisture  
Dew Point 65 °F    
Average Humidity 67    
Maximum Humidity 90    
Minimum Humidity 43    
Precipitation  
Precipitation 0.00 in 0.18 in 1.84 in (1971)
Month to date precipitation 1.27 1.11  
Year to date precipitation 15.97 15.91  
Sea Level Pressure  
Sea Level Pressure 29.95 in    
Wind  
Wind Speed 3 mph (East)    
Max Wind Speed 10 mph    
Max Gust Speed 14 mph    
Visibility 8 miles    
Events      
T = Trace of Precipitation, MM = Missing Value Source: NWS Daily Summary

Daily Weather History Graph

Daily Weather History Graph

Search for Another Location

Airport:

Trip Planner

Search our weather history database for the weather conditions in past years. The results will help you decide how hot, cold, wet, or windy it might be!

Date:

Astronomy

May. 06, 2012 Rise Set
Actual Time 6:39 AM EDT 8:39 PM EDT
Civil Twilight 6:11 AM EDT 9:08 PM EDT
Nautical Twilight 5:35 AM EDT 9:43 PM EDT
Astronomical Twilight 4:58 AM EDT 10:21 PM EDT
Moon 9:42 PM EDT (5/6) 6:50 AM EDT (5/6)
Length of Visible Light 14h 57m
Length of Day
13h 59m
Full, 100% of the Moon is Illuminated
May 6
Full
May 12
Last Quarter
May 20
New
May 28
First Quarter
Jun 4
Full

Hourly Weather History & Observations

Time (EDT) Temp. Heat Index Dew Point Humidity Pressure Visibility Wind Dir Wind Speed Gust Speed Precip Events Conditions
12:53 AM 73.9 °F - 66.9 °F 79% 29.96 in 9.0 mi Calm Calm - N/A   Mostly Cloudy
1:53 AM 73.9 °F - 66.0 °F 76% 29.96 in 9.0 mi East 3.5 mph - N/A   Partly Cloudy
2:53 AM 73.0 °F - 66.0 °F 79% 29.94 in 8.0 mi ENE 3.5 mph - N/A   Clear
3:53 AM 71.6 °F - 66.2 °F 83% 29.96 in 7.0 mi Calm Calm - N/A   Clear
4:53 AM 69.1 °F - 64.9 °F 87% 29.95 in 6.0 mi NW 3.5 mph - N/A   Partly Cloudy
5:53 AM 70.0 °F - 66.0 °F 87% 29.95 in 6.0 mi Calm Calm - N/A   Scattered Clouds
6:53 AM 70.0 °F - 66.0 °F 87% 29.97 in 4.0 mi Calm Calm - N/A   Scattered Clouds
7:53 AM 71.1 °F - 64.9 °F 81% 29.99 in 4.0 mi Calm Calm - N/A   Haze
8:53 AM 73.9 °F - 66.0 °F 76% 30.01 in 6.0 mi Calm Calm - N/A   Haze
9:53 AM 77.0 °F - 66.0 °F 69% 30.01 in 7.0 mi East 4.6 mph - N/A   Clear
10:53 AM 79.0 °F - 66.9 °F 66% 29.99 in 9.0 mi East 3.5 mph - N/A   Clear
11:53 AM 82.0 °F 84.5 °F 66.9 °F 60% 29.98 in 10.0 mi Variable 3.5 mph - N/A   Clear
12:53 PM 82.9 °F 85.8 °F 68.0 °F 60% 29.98 in 10.0 mi Variable 3.5 mph - N/A   Scattered Clouds
1:53 PM 84.9 °F 87.1 °F 66.0 °F 53% 29.94 in 10.0 mi East 10.4 mph - N/A   Partly Cloudy
2:53 PM 86.0 °F 88.8 °F 66.9 °F 53% 29.94 in 10.0 mi Variable 4.6 mph - N/A   Scattered Clouds
3:53 PM 87.1 °F 87.8 °F 63.0 °F 44% 29.94 in 10.0 mi Variable 3.5 mph - N/A   Partly Cloudy
4:53 PM 86.0 °F 86.8 °F 63.0 °F 46% 29.93 in 10.0 mi Variable 6.9 mph - N/A   Scattered Clouds
5:53 PM 87.1 °F 87.8 °F 63.0 °F 44% 29.91 in 10.0 mi Variable 5.8 mph - N/A   Scattered Clouds
6:53 PM 86.0 °F 86.8 °F 63.0 °F 46% 29.88 in 10.0 mi Variable 5.8 mph - N/A   Clear
7:53 PM 84.9 °F 85.4 °F 62.1 °F 46% 29.90 in 10.0 mi ESE 3.5 mph - N/A   Clear
8:53 PM 82.9 °F 83.7 °F 62.1 °F 49% 29.91 in 10.0 mi Calm Calm - N/A   Clear
9:53 PM 80.1 °F 81.7 °F 64.0 °F 58% 29.91 in 10.0 mi ESE 3.5 mph - N/A   Clear
10:53 PM 77.0 °F - 64.0 °F 64% 29.91 in 10.0 mi Calm Calm - N/A   Clear
11:53 PM 77.0 °F - 64.0 °F 64% 29.88 in 10.0 mi Calm Calm - N/A   Clear